Regional Weather Roundup
Issued by NWS Kansas City/Pleasant Hill, MO

Home | Current Version | Previous Version | Graphics & Text | Print | Product List | Glossary Off
Versions: 1 2 3 4 5 6 7 8 9 10 11 12 13 14 15 16 17 18 19 20 21 22 23 24 25 26 27 28

000
ASUS43 KEAX 220010
RWREAX

WEATHER ROUNDUP FOR EASTERN KANSAS AND NORTHWEST MISSOURI
NATIONAL WEATHER SERVICE KANSAS CITY/PLEASANT HILL MO
700 PM CDT FRI JUL 21 2017

KSZ040-057-103>105-MOZ028-029-037-043-220100-
...KANSAS CITY METROPOLITAN AREA...

CITY           SKY/WX    TMP DP  RH WIND       PRES   REMARKS
K.C. INTL      SUNNY     94  76  55 S14       29.83F HX 106
6HR MIN TEMP:  93; 6HR MAX TEMP:  98;

K.C. DOWNTOWN  SUNNY     95  75  52 S16G23    29.82S HX 107
6HR MIN TEMP:  95; 6HR MAX TEMP:  98;

LEES SUMMIT    SUNNY     94  75  54 S12G24    29.85F HX 105
6HR MIN TEMP:  94; 6HR MAX TEMP:  97;

OLATHE - IXD   SUNNY     93  74  53 S14       29.85F HX 103
6HR MIN TEMP:  93; 6HR MAX TEMP:  97;

OLATHE - OJC   SUNNY     91  75  59 S15       29.85F HX 101
6HR MIN TEMP:  91; 6HR MAX TEMP:  93; 6HR PCP: TRACE;

LAWRENCE       SUNNY     96  75  50 SE13      29.81S HX 108

$$

MOZ001>008-011>017-020>025-030>033-038>040-044>046-053-054-220100-
...NORTHERN AND CENTRAL MISSOURI...

CITY           SKY/WX    TMP DP  RH WIND       PRES   REMARKS
ST. JOSEPH     SUNNY     93  79  63 S9        29.79F HX 110
6HR MIN TEMP:  93; 6HR MAX TEMP:  95;

MOSBY          CLEAR     93  73  52 S8        29.83S HX 102
WARRENSBURG    SUNNY     93  70  46 S9        29.86F HX  99
WHITEMAN AFB   NOT AVBL
CLINTON        SUNNY     93  75  55 S6        29.88F HX 104
SEDALIA        SUNNY     94  73  50 SW9       29.89S HX 103
6HR MIN TEMP:  94; 6HR MAX TEMP:  98;

WARSAW         NOT AVBL
CHILLICOTHE      N/A     92  80  68 S6        29.83F HX 110
6HR MIN TEMP:  91; 6HR MAX TEMP:  94;

KIRKSVILLE     SUNNY     92  76  59 S10       29.86S HX 104
6HR MIN TEMP:  92; 6HR MAX TEMP:  96;


$$

MOZ041-047>049-056>058-063>065-088>090-097-220100-
...EASTERN AND SOUTHERN MISSOURI...

CITY           SKY/WX    TMP DP  RH WIND       PRES   REMARKS
ST. LOUIS INTL MOSUNNY  100  66  32 W8        29.87F HX 104
6HR MIN TEMP: 100; 6HR MAX TEMP: 104;

SPIRIT OF STL  MOSUNNY   97  74  47 VRB3      29.86S HX 108
COLUMBIA       SUNNY     95  71  45 SW8       29.88F HX 102
JEFFERSON CITY SUNNY     97  70  41 SW8       29.85F HX 103
ROLLA          SUNNY     90  73  57 S7        29.91S HX  98
OSAGE BEACH    SUNNY     96  69  41 SW8       29.90S HX 102
SPRINGFIELD    SUNNY     93  69  45 SW12      29.94S HX  98
BRANSON        MOSUNNY   91  70  49 SW9       29.97F HX  97
JOPLIN         SUNNY     95  70  44 SW13      29.91S HX 101
WEST PLAINS    SUNNY     91  72  53 SW8       29.98S HX  98

$$

IAZ060-094-KSZ022-034>040-054-083-096-NEZ052-066-093-220100-
...KANSAS...SOUTHEAST NEBRASKA AND IOWA...

CITY           SKY/WX    TMP DP  RH WIND       PRES   REMARKS
TOPEKA         SUNNY     97  72  44 S9        29.79F HX 105
6HR MIN TEMP:  97; 6HR MAX TEMP: 100;

MANHATTAN      SUNNY    104  64  27 S13       29.76F HX 107
EMPORIA        SUNNY     97  69  40 S10       29.83S HX 103
CHANUTE        SUNNY     96  70  42 S20G25    29.87S HX 102
WICHITA        SUNNY    102  62  26 S13       29.81F HX 104
OMAHA          MOSUNNY  101  73  40 S13       29.71F HX 112
LINCOLN        SUNNY     96  74  48 S9        29.72F HX 107
LAMONI         SUNNY     92  77  61 S9G20     29.81F HX 105
DES MOINES     CLOUDY    96  73  47 S15       29.76S HX 105

$$





USA.gov is the U.S. government's official web portal to all federal, state and local government web resources and services.